Location: Bacea
(45.9500°N, 22.6667°E)
Time: 10:49:43
(UTC+00:00)

Cosmos 494 Rocket - Pass Details

Date: 16 October 2021
Orbit: 743 x 770 km, 74.1° (Epoch: 02 December)

Event Time Altitude Azimuth Distance (km) Brightness Sun altitude
Rises 16:04:59 0° 342° (NNW) 3,243 7.4 -4.9°
Reaches altitude 10° 16:07:28 10° 348° (NNW) 2,309 6.6 -5.3°
Maximum altitude 16:12:31 47° 63° (ENE) 1,004 4.3 -6.2°
Drops below altitude 10° 16:17:30 10° 137° (SE) 2,277 6.1 -7.0°
Sets 16:19:55 0° 143° (SE) 3,193 6.9 -7.4°
